Date,TemperatureHighF,TemperatureAvgF,TemperatureLowF,DewpointHighF,DewpointAvgF,DewpointLowF,HumidityHigh,HumidityAvg,HumidityLow,PressureMaxIn,PressureMinIn,WindSpeedMaxMPH,WindSpeedAvgMPH,GustSpeedMaxMPH,PrecipitationSumIn
2013-9-1,84.9,75.0,68.0,76.1,71.0,66.9,97,88,69,29.93,29.75,3,0,7,0.38
2013-9-2,86.7,75.3,67.5,76.3,71.4,61.3,97,88,69,29.99,29.83,2,0,6,0.00
2013-9-3,81.5,69.8,60.0,68.8,62.6,55.6,95,79,56,30.12,29.90,2,0,6,0.00
2013-9-4,81.5,68.1,56.8,65.7,60.9,55.4,97,80,51,30.20,30.09,1,0,3,0.00
2013-9-5,86.3,71.2,59.4,69.2,64.1,58.3,97,80,50,30.23,30.15,1,0,2,0.01
2013-9-6,86.5,72.9,62.9,71.2,65.9,61.7,96,80,55,30.23,30.09,1,0,3,0.00
2013-9-7,86.3,73.9,63.2,73.4,67.3,62.0,97,81,57,30.12,29.97,1,0,5,0.00
2013-9-8,86.1,73.8,68.3,74.1,68.7,65.7,95,85,63,30.03,29.96,1,0,4,0.00
2013-9-9,91.3,77.6,66.9,76.7,70.9,65.7,97,81,56,30.12,29.98,1,0,7,0.00
2013-9-10,92.0,78.2,69.7,78.1,72.2,68.0,95,83,58,30.17,30.05,3,0,9,0.00
2013-9-11,88.9,76.5,68.3,76.9,71.8,66.3,97,86,60,30.20,30.05,2,0,6,0.00
2013-9-12,82.7,72.5,62.1,73.4,68.3,55.5,97,87,69,30.08,29.94,2,0,7,0.10
2013-9-13,70.8,59.6,49.1,64.5,53.4,46.1,94,81,55,30.14,29.97,2,0,6,0.00
2013-9-14,73.5,58.6,46.7,53.5,49.9,45.1,96,76,43,30.21,30.10,1,0,5,0.00
2013-9-15,79.6,64.0,48.3,64.0,56.7,46.9,97,79,52,30.17,30.08,2,0,6,0.00
2013-9-16,75.1,66.3,57.6,66.2,61.4,54.0,95,85,70,30.27,30.12,1,0,3,0.04
2013-9-17,77.2,64.4,55.0,62.1,57.8,53.2,95,81,52,30.30,30.13,1,0,4,0.00
2013-9-18,77.7,67.7,59.3,70.4,64.6,57.0,96,90,75,30.19,30.09,2,0,7,0.02
2013-9-19,83.2,72.6,65.6,73.6,68.4,64.4,97,87,69,30.15,29.98,2,0,7,0.00
2013-9-20,82.4,72.3,66.3,72.2,68.3,57.3,97,88,69,30.02,29.76,3,0,11,0.64
2013-9-21,71.6,63.0,53.9,66.3,57.5,49.1,97,84,57,29.98,29.76,2,0,6,0.66
2013-9-22,72.3,58.6,49.5,57.4,52.0,46.8,96,81,50,30.07,29.92,1,0,4,0.00
2013-9-23,74.0,59.0,47.9,57.8,52.5,46.6,96,81,49,30.11,30.02,1,0,4,0.00
2013-9-24,78.8,64.8,52.8,67.6,59.5,51.1,95,84,64,30.07,29.85,1,0,3,0.00
2013-9-25,81.2,68.4,59.6,68.6,63.8,55.8,95,86,61,29.99,29.85,1,0,3,0.00
2013-9-26,78.8,64.4,54.2,61.1,57.0,51.8,97,80,44,30.14,29.93,1,0,3,0.00
2013-9-27,80.6,64.9,52.9,64.3,57.5,51.6,97,79,47,30.19,30.08,1,0,3,0.00
2013-9-28,81.1,66.1,55.2,65.3,59.2,53.8,97,80,53,30.20,30.07,2,0,6,0.00
2013-9-29,64.9,61.0,57.1,61.1,58.8,55.0,96,93,82,30.11,30.03,2,0,7,0.09
2013-9-30,76.0,66.0,60.1,67.1,62.2,58.8,97,88,70,30.09,29.98,2,0,5,0.00